Overview Statistics Trail Chart Weather Telemetry Raw packets
 

This is the latest recevied weather packets stored in our database for station/object KR0L-13. If no packets are shown the sender has not sent any weather packets the latest 10 day(s).

<< 7 8 9 10 11 12 13 >>
Time Temp. Humidity Pressure Rain* Wind** Luminosity Snow
1788534921 30.56° C 62% 1014.1 hPa 0 mm - - -
1788534321 30° C 65% 1014.2 hPa 0 mm - - -
1788533751 29.44° C 66% 1014.2 hPa 0 mm - - -
1788533121 29.44° C 67% 1014.1 hPa 0 mm - - -
1788532521 28.89° C 69% 1014.2 hPa 0 mm - - -
1788531921 28.33° C 70% 1014.3 hPa 0 mm - - -
1788531321 27.78° C 72% 1014.3 hPa 0 mm - - -
1788530721 27.22° C 73% 1014.2 hPa 0 mm - - -
1788530121 27.22° C 74% 1014.2 hPa 0 mm - - -
1788529521 26.67° C 75% 1014.2 hPa 0 mm - - -
1788528921 26.11° C 77% 1014 hPa 0 mm - - -
1788528321 25.56° C 78% 1014 hPa 0 mm - - -
1788527752 25.56° C 79% 1013.9 hPa 0 mm - - -
1788527121 25.56° C 79% 1013.8 hPa 0 mm - - -
1788526521 25° C 81% 1013.7 hPa 0 mm - - -
1788525921 24.44° C 81% 1013.6 hPa 0 mm - - -
1788525321 24.44° C 82% 1013.5 hPa 0 mm - - -
1788524721 24.44° C 82% 1013.6 hPa 0 mm - - -
1788524121 24.44° C 82% 1013.5 hPa 0 mm - - -
1788523521 24.44° C 82% 1013.4 hPa 0 mm - - -
1788522921 24.44° C 81% 1013.3 hPa 0 mm - - -
1788522321 24.44° C 81% 1013.2 hPa 0 mm - - -
1788521721 24.44° C 80% 1013.2 hPa 0 mm - - -
1788521121 25° C 80% 1013.2 hPa 0 mm - - -
1788520521 25° C 80% 1013.1 hPa 0 mm - - -

* Rain latest hour (hover to see other rain measurements)
** Current wind speed in m/s (hover to see current wind gust speed)